TimeEST,TemperatureF,Dew PointF,Humidity,Sea Level PressureIn,VisibilityMPH,Wind Direction,Wind SpeedMPH,Gust SpeedMPH,PrecipitationIn,Events,Conditions,WindDirDegrees,DateUTC
12:56 AM,24.1,16.0,71,30.01,-9999.0,NW,13.8,32.2,N/A,,Unknown,310,2012-12-06 05:56:00
1:56 AM,24.1,15.1,69,30.04,-9999.0,NW,15.0,24.2,N/A,,Unknown,320,2012-12-06 06:56:00
2:56 AM,23.0,15.1,72,30.05,-9999.0,NW,15.0,25.3,N/A,,Unknown,320,2012-12-06 07:56:00
3:56 AM,21.9,14.0,72,30.08,-9999.0,NW,13.8,25.3,N/A,,Unknown,310,2012-12-06 08:56:00
4:56 AM,21.0,15.1,78,30.10,-9999.0,NW,15.0,23.0,N/A,,Unknown,320,2012-12-06 09:56:00
5:56 AM,19.0,12.0,74,30.14,-9999.0,NW,21.9,33.4,N/A,,Unknown,320,2012-12-06 10:56:00
6:56 AM,18.0,12.0,78,30.15,-9999.0,NW,21.9,33.4,N/A,,Unknown,320,2012-12-06 11:56:00
7:56 AM,18.0,12.0,78,30.19,-9999.0,NNW,19.6,28.8,N/A,,Unknown,330,2012-12-06 12:56:00
8:56 AM,19.0,10.9,71,30.20,-9999.0,NW,17.3,32.2,N/A,,Unknown,320,2012-12-06 13:56:00
9:56 AM,19.9,10.9,68,30.23,-9999.0,NNW,15.0,26.5,N/A,,Unknown,340,2012-12-06 14:56:00
10:56 AM,21.9,10.9,63,30.24,-9999.0,NW,15.0,25.3,N/A,,Unknown,320,2012-12-06 15:56:00
11:56 AM,24.1,10.0,55,30.23,-9999.0,North,10.4,21.9,N/A,,Unknown,350,2012-12-06 16:56:00
12:56 PM,26.1,10.9,53,30.23,-9999.0,NNW,10.4,16.1,N/A,,Unknown,330,2012-12-06 17:56:00
1:56 PM,26.1,12.0,55,30.22,-9999.0,NW,6.9,16.1,N/A,,Unknown,320,2012-12-06 18:56:00
2:56 PM,26.1,10.9,53,30.23,-9999.0,North,10.4,-,N/A,,Unknown,350,2012-12-06 19:56:00
3:56 PM,24.1,10.9,57,30.23,-9999.0,NNW,12.7,-,N/A,,Unknown,340,2012-12-06 20:56:00
4:56 PM,23.0,12.0,63,30.25,-9999.0,North,8.1,-,N/A,,Unknown,350,2012-12-06 21:56:00
5:56 PM,21.9,12.9,68,30.27,-9999.0,NNW,6.9,-,N/A,,Unknown,340,2012-12-06 22:56:00
6:56 PM,19.9,12.9,74,30.28,-9999.0,North,4.6,-,N/A,,Unknown,350,2012-12-06 23:56:00
7:56 PM,19.9,12.9,74,30.26,-9999.0,Calm,Calm,-,N/A,,Unknown,0,2012-12-07 00:56:00
8:56 PM,17.1,12.0,81,30.27,-9999.0,Calm,Calm,-,N/A,,Unknown,0,2012-12-07 01:56:00
9:56 PM,19.0,12.9,77,30.26,-9999.0,NNE,4.6,-,N/A,,Unknown,30,2012-12-07 02:56:00
10:56 PM,18.0,12.0,78,30.27,-9999.0,Calm,Calm,-,N/A,,Unknown,0,2012-12-07 03:56:00
11:56 PM,19.9,14.0,78,30.25,-9999.0,Calm,Calm,-,N/A,,Unknown,0,2012-12-07 04:56:00